Regional Weather Roundup
Issued by NWS Wakefield, VA

Home | Current Version | Previous Version | Graphics & Text | Print | Product List | Glossary On
Versions: 1 2 3 4 5 6 7 8 9 10 11 12 13 14 15 16 17 18 19 20 21 22 23 24 25 26 27 28 29 30 31 32 33 34 35 36 37 38 39 40 41 42 43 44 45 46 47 48 49 50
000
ASUS41 KAKQ 011110
RWRAKQ

REGIONAL WEATHER ROUNDUP
NATIONAL WEATHER SERVICE WAKEFIELD VA
600 AM EST SUN MAR 01 2015

Note: "fair" indicates few or no clouds below 12,000 feet with no
significant weather and/or obstructions to visibility. * = Denotes
station may not report precipitation (e.g., rain,snow,etc.),
thunder or fog.

VAZ042-051-052>054-056-011200-
NORTHERN VIRGINIA

CITY           SKY/WX    TMP DP  RH WIND       PRES   REMARKS
WASH NATIONAL  CLOUDY    28  15  58 S5        30.66S
DULLES         CLOUDY    24  12  60 CALM      30.65R
FORT BELVOIR   CLOUDY    25  14  63 CALM      30.67R
QUANTICO       CLOUDY    26  15  63 S3        30.68S
FREDERICKSBRG* CLOUDY    26  17  67 CALM      30.65S
STAFFORD*      CLOUDY    24  13  62 CALM      30.69R
WARRENTON      CLOUDY    27  20  73 CALM      30.62F
CULPEPER*      CLOUDY    27  18  69 CALM      30.63S
MANASSAS*      CLOUDY    25  18  74 CALM      30.66R
LEESBURG*      CLOUDY    25  18  74 CALM      30.65R
WINCHESTER     CLOUDY    27  10  50 E3        30.57F
FRONT ROYAL*   CLOUDY    23  14  68 CALM      30.57R
LURAY*         CLOUDY    30  18  59 S3        30.56S
$$

VAZ048-049-060>072-079>083-011200-
CENTRAL AND SOUTH CENTRAL VIRGINIA

CITY           SKY/WX    TMP DP  RH WIND       PRES   REMARKS
RICHMOND       CLOUDY    26  16  65 CALM      30.65S
CHESTERFIELD*  CLOUDY    27  10  50 CALM      30.65
PETERSBURG*    CLOUDY    28  21  75 NE3       30.65S
HANOVER        CLOUDY    25  17  72 CALM      30.66S
TAPPAHANNOCK*  CLOUDY    22  15  74 CALM      30.66F
QUINTON*       CLOUDY    25  19  76 CALM      30.65S
CHARLOTTSVILLE CLOUDY    25  14  63 S7        30.60S
GORDONSVILLE*  CLOUDY    25  14  64 CALM      30.61F
ORANGE*        CLOUDY    27  18  69 CALM      30.64R
LOUISA*        CLOUDY    27  16  63 CALM      30.61S
BUMPASS*       CLOUDY    25  14  63 CALM      30.63S
FARMVILLE*     CLOUDY    29  19  65 CALM      30.61S
CREWE*         CLOUDY    26  17  70 CALM      30.62S
FORT PICKETT*  CLOUDY    26  19  72 CALM      30.61F
CHASE CITY*    CLOUDY    29  19  65 CALM      30.61F
CLARKSVILLE*   CLOUDY    28  21  74 CALM      30.61S
SOUTH HILL*    CLOUDY    26  20  79 CALM      30.67F
LAWRENCEVILLE* CLOUDY    26  19  73 CALM      30.62S
EMPORIA*       LGT RAIN  28  21  74 NW3       30.66R
$$

VAZ088>098-011200-
SOUTHEAST VIRGINIA

CITY           SKY/WX    TMP DP  RH WIND       PRES   REMARKS
NORFOLK        CLOUDY    30  24  78 N8        30.62F
VIRGINIA BEACH MOCLDY    34  26  72 NE9       30.61F
NORFOLK NAVAL  CLOUDY    33  24  69 NE12      30.65S WCI  24
WEST POINT*    CLOUDY    27  19  72 CALM      30.68R
SALUDA*        CLOUDY    27  19  71 E3        30.65S
NEWPORT NEWS   CLOUDY    30  21  69 NE6       30.64F
LANGLEY AFB    CLOUDY    29  22  74 NE8       30.64F
FORT EUSTIS    CLOUDY    28  21  76 NE3       30.63F
WILLIAMSBURG*  CLOUDY    28  23  80 CALM      30.66R
HR EXEC AP*    CLOUDY    30  21  69 NE3       30.66R
FRANKLIN*      CLOUDY    28  21  76 CALM      30.65S
WAKEFIELD      CLOUDY    27  20  75 NE3       30.64F
$$

VAZ020-022-025-037-045-011200-
WEST CENTRAL AND SOUTHWEST VIRGINIA

CITY           SKY/WX    TMP DP  RH WIND       PRES   REMARKS
STAUNTON*      CLOUDY    25  15  65 SW3       30.57S
WAYNESBORO*    PTSUNNY   24  13  64 CALM      30.53F
HOT SPRINGS VA CLOUDY    31  26  81 SW17      30.38S WCI  20
LYNCHBURG      CLOUDY    26  15  63 CALM      30.60R
DANVILLE       FRZ RAIN  29  22  75 CALM      30.62R
SOUTH BOSTON*  CLOUDY    28  21  74 CALM      30.61F
MARTINSVILLE   MIX PCPN  29  23  76 CALM      30.61S
ROANOKE        CLOUDY    28  13  53 CALM      30.59R
BLACKSBURG     CLOUDY    26  12  55 CALM      30.54S
DUBLIN*        CLOUDY    28  19  69 NE5       30.51F
MARION*        CLOUDY    29  19  66 E7        30.47S
HILLSVILLE*    CLOUDY    27  18  67 S8        30.45S
RICHLANDS*     CLOUDY    37  18  47 CALM      30.38F
WISE*          CLOUDY    39  27  60 S13       30.37F
ABINGDON*      CLOUDY    37  25  61 E5        30.42R
$$

MDZ021>025-VAZ099-100-011200-
SOUTHERN MARYLAND AND THE DELMARVA PENINSULA

CITY           SKY/WX    TMP DP  RH WIND       PRES   REMARKS
PATUXENT RIVER CLOUDY    24  17  74 E3        30.64F
BAY BRIDGE APT   N/A     25  18  74 SE5       30.66F
LEONARDTOWN    CLOUDY    23  18  80 CALM      30.65F
DOVER          PTCLDY    21  18  88 E3        30.67F
GEORGETOWN     CLOUDY    18  12  77 CALM      30.68F
EASTON         PTCLDY    24  17  75 SE3       30.70F
CAMBRIDGE      CLEAR     23  16  74 E3        30.66F
SALISBURY      MOCLDY    20  14  77 CALM      30.68F
OCEAN CITY     CLOUDY    19  15  84 CALM      30.68F
WALLOPS ISLAND CLEAR     17  13  84 NE5       30.68F
ACCOMACK*      PTCLDY    21  12  68 NE5       30.66S
$$

NCZ012>017-030>032-011200-
NORTH CENTRAL AND EASTERN NORTH CAROLINA

CITY           SKY/WX    TMP DP  RH WIND       PRES   REMARKS
ROANOKE RAPIDS MIX PCPN  28  23  80 NE3       30.63S
RALEIGH        FRZ RAIN  29  23  78 N5        30.61R FOG
ELIZABETH CITY MOCLDY    34  28  79 N8        30.61F
AHOSKIE*       CLOUDY    28  20  72 N5        30.64S
EDENTON*       CLOUDY    32  26  78 NE5       30.60F
CURRITUCK*     CLOUDY    34  28  79 NE8       30.60F
KILL DEVIL HLS MOCLDY    37  33  88 N8        30.59R
MANTEO         MOCLDY    37  34  87 N13       30.60S
CAPE HATTERAS  CLOUDY    39  37  92 NE6       30.55F
TARBORO*       MIX PCPN  31  22  69 N5        30.64S
GOLDSBORO      CLOUDY    31  31  99 NE2       30.56F
WASHINGTON     CLOUDY    32  24  72 N7        30.61S
GREENVILLE     RAIN      32  25  74 N5        30.60S
NEW BERN       CLOUDY    34  27  75 N7        30.60R
WILMINGTON     MIX PCPN  36  30  79 N6        30.55S
$$

VAZ048-011200-
ELSEWHERE

CITY           SKY/WX    TMP DP  RH WIND       PRES   REMARKS
HARRISBURG PA  CLOUDY    21   9  59 SE3       30.63S
BALTIMORE      CLOUDY    20  13  74 CALM      30.65S
ANNAPOLIS      MOCLDY    24  18  77 CALM      30.65F
ANDREWS AFB    CLOUDY    23  12  63 S5        30.68S
PHILADELPHIA   CLOUDY    24  10  55 CALM      30.68F
HENDERSON NC   MIX PCPN  27  22  80 CALM      30.61R
GREENSBORO     FRZ RAIN  29  21  72 E3        30.57F
ROCKY MOUNT    CLOUDY    30  22  72 N9        30.61F
$$

VAZ100-011200-
MARINE

STATION/POSITION TIME  TEMP    WIND        PRES    WAVE   SWELL
                       AIR SEA DIR/SP/G            HT/PER HT/PER
                 (UTC) (F)     (DEG/KT/KT) (MB)    (FT/S) (FT/S)
BRANDYWINE LGT   1100   26 29  180/  1/  1 1039.2F
CAPE MAY NJ      1100   23 31  100/  1/  2 1038.9F
LEWES DE         1100   23 30   CALM  /  1 1038.9F
15NM E FENWICK I 1100   30 33              1038.9F   2/ 9
OCEAN-CITY-INLET 1100   26 32  350/  4/  5 1038.8S
WACHAPREAGUE VA  1100   25 33   20/  7/  8 1037.8F
THOMAS POINT MD  1100   26 31  130/  6/  7 1039.0F
COVE POINT MD    1100   25     160/  8/  9 1038.0F
SOLOMONS ISLAND  1100      33                N/A
BISHOPS HEAD MD  1100   26 31   90/  7/  8 1037.9F
CAMBRIDGE MD     1100   21 32  110/  2/  3 1038.3F
LEWISETTA VA     1100   24 33              1037.7F
RAPPAHANNOCK LGT 1100           40/ 11/ 12 1038.3F
STINGRAY PT      1100   29      70/ 10/ 12   N/A
YORK RVR RNG VA  1100   30      50/ 13/ 15 1037.0R
YORKTOWN VA      1100   28 33   30/  6/  8 1037.8R
DOMINION TERM VA 1100   30      50/  4/  7 1037.4S
KIPTOPEKE VA     1100      36   50/  8/ 11   N/A
CHES BAY BRIDGE  1100   30 33   20/  9/ 11 1036.6F
CAPE HENRY VA    1100   32      40/ 11/ 13 1035.4F
CHESAPEAKE LGHT  1000   35      30/ 15/ 16 1037.6S
WILLOUBY STN VA  1100   30      40/ 12/ 13 1037.8R
S CRANEY ISL VA  1100           40/  8/ 10 1037.3R
CAPE HENRY BUOY  1100      35                N/A     3/10
1ST LANDING BUOY 1100   32      30/ 10/ 14 1036.8F
OFFSHORE WE BUOY 1100      37                N/A     3/ 9   2/ 9
64NM E OF VA BCH 1100   52 64   60/ 16/ 17 1035.3F   4/ 9   2/ 9
DUCK PIER NC     1100   36 34   10/ 11/ 13 1035.3S
44100 DUCK FRF   1000      36                N/A     4/11   2/11
44056 DUCK FRF   1100      34                N/A     4/ 5
OREGON INLET NC  1100   37 38  350/ 10/ 13 1035.2F
HATTERAS NC      1100   39 38   40/  8/ 11 1034.8F
CAPE LOOKOUT NC  1000   38      20/ 11/ 14 1034.2F
$$



USA.gov is the U.S. government's official web portal to all federal, state and local government web resources and services.